Location: Namasale
(1.5000°N, 32.6167°E)
Time: 19:48:25
(UTC+00:00)

USA 81 - Pass Details

Date: 09 April 2020
Orbit: 785 x 788 km, 85.0° (Epoch: 18 May)

Event Time Altitude Azimuth Distance (km) Brightness Sun altitude
Rises 16:10:49 0° 0° (N) 3,259 7.4 -4.7°
Reaches altitude 10° 16:13:10 10° 1° (N) 2,334 6.6 -5.3°
Maximum altitude 16:18:24 83° 88° (E) 794 4.0 -6.6°
Drops below altitude 10° 16:23:40 10° 177° (S) 2,343 6.4 -7.9°
Sets 16:26:02 0° 177° (S) 3,274 7.2 -8.5°
